Flag for Hungary Weather past 2 weeks in Miskolc, Hungary

Now
60 °F

Overcast.


Feels Like: 60 °F
Forecast: 57 / 74 °F
Wind: No wind

Location: Miskolc

Current Time: Sep 20, 2014 at 12:25:23 AM

Latest Report: Sep 19, 2014 at 11:00 PM


Visibility: 16 mi

Pressure: 30.07 "Hg

Humidity: 82%

Dew point: 54 °F

Location of MiskolcLocation

Historic Weather in Miskolc — Graph

°F

Miskolc temperature yesterday

Maximum temperature yesterday: 73 °F (at 5:00 PM)
Minimum temperature yesterday: 49 °F (at 6:00 AM)
Average temperature yesterday: 60 °F

Past Weeks' High & Low Weather Summary

 TemperatureHumidityPressure
High81 °F (Sep 9, 4:00 PM)94% (Sep 10, 11:00 AM)30.19 "Hg (Sep 10, 11:00 AM)
Low49 °F (Sep 19, 6:00 AM)40% (Sep 18, 4:00 PM)29.86 "Hg (Sep 11, 5:00 PM)
Average64 °F79%30.01 "Hg
* Reported Sep 4 11:00 PM — Sep 19 11:00 PM, Miskolc, Weather by CustomWeather, © 2014

Note: Actual official high and low records may vary slightly from our data, if they occured in-between our weather recording intervals... More about our weather records

Advertising

Miskolc weather history for previous 24 hours

 ConditionsComfort  
Time TempWeatherWind HumidityBarometerVisibility
11:00 PM
Sep 19
60 °FOvercast.No wind82%30.07 "Hg16 mi
10:00 PM61 °FPassing clouds.1 mph77%30.07 "Hg16 mi
9:00 PM61 °FOvercast.No wind77%30.09 "Hg16 mi
8:00 PM62 °FPassing clouds.1 mph73%30.08 "Hg16 mi
7:00 PM65 °FPassing clouds.No wind65%30.08 "Hg19 mi
6:00 PM69 °FOvercast.1 mph55%30.08 "Hg19 mi
5:00 PM73 °FScattered clouds.3 mph46%30.08 "Hg19 mi
4:00 PM72 °FOvercast.2 mph45%30.09 "Hg19 mi
3:00 PM71 °FPartly sunny.2 mph48%30.10 "Hg22 mi
2:00 PM70 °FPartly sunny.1 mph57%30.14 "Hg19 mi
1:00 PM66 °FOvercast.1 mph61%30.16 "Hg19 mi
12:00 PM64 °FOvercast.1 mph64%30.17 "Hg19 mi
11:00 AM64 °FOvercast.2 mph66%30.18 "Hg19 mi
10:00 AM62 °FOvercast.2 mph71%30.18 "Hg16 mi
9:00 AM58 °FPartly sunny.1 mph77%30.19 "Hg16 mi
8:00 AM52 °FPartly sunny.No wind89%30.19 "Hg12 mi
7:00 AM50 °FPartly sunny.No wind91%30.18 "Hg12 mi
6:00 AM49 °FPassing clouds.No wind91%30.17 "Hg9 mi
5:00 AM50 °FPassing clouds.No wind91%30.17 "Hg9 mi
4:00 AM51 °FPassing clouds.No wind91%30.17 "Hg11 mi
3:00 AM51 °FPassing clouds.No wind90%30.17 "Hg9 mi
2:00 AM51 °FPassing clouds.No wind90%30.17 "Hg12 mi
1:00 AM53 °FPassing clouds.No wind87%30.17 "Hg12 mi
12:00 AM54 °FPassing clouds.No wind84%30.17 "Hg16 mi
Weather by CustomWeather, © 2014

See weather overviewHow to use our weather pages